DW4277 Weather Reports


time (UTC)temp
F
wind
direction
speed
knots
gust
knots
rain 1hr
in
rain 24hr
in
rain mn
in
humidity
%
barometer
mb
20260905114605 73 321 22.6 39.1 0.00 0.00 0.00 57 1018.4
20260905113051 73 356 26.1 40.8 0.00 0.00 0.00 56 1018.4
20260905111552 72 338 21.7 40.8 0.00 0.00 0.00 59 1018.2
20260905110046 71 325 16.5 43.4 0.00 0.00 0.00 62 1018.4
20260905104547 70 11 20.0 37.4 0.00 0.00 0.00 64 1018.3
20260905103039 69 344 26.9 43.4 0.00 0.00 0.00 64 1018.5
20260905101539 69 348 20.9 35.6 0.00 0.00 0.00 67 1018.6
20260905100032 68 326 14.8 26.1 0.00 0.00 0.00 69 1018.6
20260905094530 67 330 5.2 16.5 0.00 0.00 0.00 71 1018.6
20260905093027 66 328 0.0 0.0 0.00 0.00 0.00 72 1018.6
20260905091526 65 328 0.0 12.2 0.00 0.00 0.00 72 1018.6
20260905090026 65 327 0.0 13.9 0.00 0.00 0.00 72 1018.6
20260905084532 65 325 8.7 21.7 0.00 0.00 0.00 70 1018.8
20260905083024 65 320 7.8 21.7 0.00 0.00 0.00 70 1018.7
20260905081524 65 327 15.6 21.7 0.00 0.00 0.00 69 1018.9
20260905080035 65 347 7.8 19.1 0.00 0.00 0.00 69 1019.0
20260905074520 65 339 10.4 19.1 0.00 0.00 0.00 68 1019.4
20260905073033 65 328 13.9 23.5 0.00 0.00 0.00 68 1019.3
20260905071516 65 354 9.6 19.1 0.00 0.00 0.00 67 1018.9
20260905070014 65 359 8.7 20.9 0.00 0.00 0.00 66 1018.9
20260905064514 66 342 11.3 22.6 0.00 0.00 0.00 63 1019.0
20260905063009 66 7 14.8 26.9 0.00 0.00 0.00 60 1018.5
20260905061505 68 19 12.2 35.6 0.00 0.00 0.00 58 1018.2
20260905060001 68 9 13.9 31.3 0.00 0.00 0.00 57 1017.7
20260905054558 68 333 12.2 33.0 0.00 0.00 0.00 56 1017.1
20260905053056 68 44 17.4 33.0 0.00 0.00 0.00 57 1016.2
20260905051551 68 358 7.8 24.3 0.00 0.00 0.00 59 1015.7
20260905050047 68 8 15.6 31.3 0.00 0.00 0.00 59 1015.3
20260905044544 68 37 17.4 35.6 0.00 0.00 0.00 61 1014.7
20260905043106 68 32 16.5 30.4 0.00 0.00 0.00 64 1013.9
20260905041539 69 19 11.3 24.3 0.00 0.00 0.00 63 1015.0
20260905040046 70 46 15.6 40.0 0.00 0.00 0.00 60 1014.7
20260905034533 71 62 16.5 32.2 0.00 0.00 0.00 65 1014.0
20260905033030 72 34 16.5 34.8 0.00 0.00 0.00 67 1013.7
20260905031527 74 50 7.0 20.9 0.00 0.00 0.00 67 1013.3
20260905030024 76 338 12.2 31.3 0.00 0.00 0.00 62 1012.3
20260905024523 76 21 0.0 0.0 0.00 0.00 0.00 54 1012.1
20260905023021 76 21 0.0 16.5 0.00 0.00 0.00 54 1011.9
20260905021520 76 335 0.9 9.6 0.00 0.00 0.00 53 1012.0
20260905020017 76 334 0.0 0.0 0.00 0.00 0.00 54 1011.7
20260905014519 76 334 0.0 0.0 0.00 0.00 0.00 53 1011.5
20260905013013 75 334 0.0 9.6 0.00 0.00 0.00 56 1011.7
20260905011508 72 336 2.6 19.1 0.00 0.00 0.00 61 1011.6
20260905010014 70 230 0.0 0.0 0.00 0.00 0.00 69 1011.5
20260905004508 71 230 0.0 0.0 0.00 0.00 0.00 71 1011.5
20260905003005 70 230 0.0 0.0 0.00 0.00 0.00 67 1011.3
20260905001504 70 230 0.0 0.0 0.00 0.00 0.00 68 1011.3
20260905000008 70 230 0.0 0.0 0.00 0.00 0.00 70 1011.2
20260904234502 70 230 0.0 0.0 0.00 0.00 0.00 68 1011.3
20260904233107 70 230 0.0 0.0 0.00 0.00 0.00 66 1011.2
20260904231559 71 230 0.0 0.0 0.00 0.00 0.00 67 1011.1
20260904224556 71 230 0.0 0.0 0.00 0.00 0.00 66 1010.9
20260904223057 71 230 0.0 0.0 0.00 0.00 0.00 66 1010.8
20260904221551 72 230 0.0 0.0 0.00 0.00 0.00 66 1010.9
20260904220108 72 230 0.0 0.0 0.00 0.00 0.00 63 1010.9
20260904214548 73 230 0.0 0.0 0.00 0.00 0.00 64 1010.8
20260904213047 73 230 0.0 0.0 0.00 0.00 0.00 61 1010.7
20260904211602 73 230 0.0 0.0 0.00 0.00 0.00 62 1010.6
20260904210049 74 230 0.0 0.0 0.00 0.00 0.00 59 1010.7
20260904204545 75 230 0.0 0.0 0.00 0.00 0.00 61 1010.5
20260904203051 75 230 0.0 0.0 0.00 0.00 0.00 57 1010.5
20260904201544 76 230 0.0 0.0 0.00 0.00 0.00 58 1010.6
20260904200046 77 230 0.0 0.0 0.00 0.00 0.00 56 1010.6
20260904194547 79 230 0.0 0.0 0.00 0.00 0.00 54 1010.6
20260904193044 80 230 0.0 0.0 0.00 0.00 0.00 54 1010.6
20260904191548 81 230 0.0 0.0 0.00 0.00 0.00 51 1010.6
20260904190047 81 230 0.0 8.7 0.00 0.00 0.00 50 1010.5
20260904184551 82 230 4.3 10.4 0.00 0.00 0.00 48 1010.4
20260904183045 83 230 4.3 11.3 0.00 0.00 0.00 47 1010.3
20260904181540 83 230 7.0 15.6 0.00 0.00 0.00 46 1010.2
20260904180048 84 208 0.9 7.8 0.00 0.00 0.00 45 1010.3
20260904174541 85 208 0.0 5.2 0.00 0.00 0.00 43 1010.3
20260904173043 87 208 0.0 6.1 0.00 0.00 0.00 42 1010.4
20260904171540 88 208 0.0 0.9 0.00 0.00 0.00 40 1010.5
20260904170044 89 208 0.0 0.9 0.00 0.00 0.00 39 1010.7
20260904164535 89 208 0.0 8.7 0.00 0.00 0.00 38 1010.8
20260904163032 89 208 0.0 10.4 0.00 0.00 0.00 37 1010.9
20260904161533 90 188 4.3 13.0 0.00 0.00 0.00 37 1011.1
20260904160029 90 244 5.2 13.9 0.00 0.00 0.00 36 1011.3
20260904154529 90 217 5.2 13.0 0.00 0.00 0.00 37 1011.5
20260904153026 89 207 3.5 14.8 0.00 0.00 0.00 37 1011.6
20260904151525 90 230 0.0 9.6 0.00 0.00 0.00 36 1011.8
20260904150033 91 303 2.6 14.8 0.00 0.00 0.00 34 1011.9
20260904144521 90 325 1.7 13.0 0.00 0.00 0.00 35 1012.0
20260904143019 90 354 5.2 16.5 0.00 0.00 0.00 35 1012.3
20260904141526 91 329 0.0 23.5 0.00 0.00 0.00 35 1012.6
20260904140030 90 328 7.8 23.5 0.00 0.00 0.00 37 1012.8
20260904134509 89 350 16.5 31.3 0.00 0.00 0.00 38 1013.0
20260904133009 88 348 10.4 22.6 0.00 0.00 0.00 38 1013.2
20260904131503 88 324 17.4 30.4 0.00 0.00 0.00 39 1013.5
20260904130100 87 319 13.0 29.5 0.00 0.00 0.00 39 1013.7
20260904124605 86 316 15.6 33.9 0.00 0.00 0.00 40 1014.0
20260904123054 86 288 10.4 33.9 0.00 0.00 0.00 40 1014.2
20260904121550 86 346 21.7 37.4 0.00 0.00 0.00 41 1014.5
20260904120054 86 323 19.1 34.8 0.00 0.00 0.00 41 1014.7